{"data":{"norad_id":66072,"epoch":"2026-09-20T14:26:21.224256Z","epoch_age_seconds":94211,"freshness":"FRESH","line1":"1 66072U 25235Q   26263.60163454  .00018344  00000+0  55278-3 0  9995","line2":"2 66072  53.1580  57.0665 0001378  88.4160 271.7000 15.34397031 52808","mean_motion":15.34397031,"eccentricity":0.0001378,"inclination_deg":53.158,"raan_deg":57.0665,"arg_perigee_deg":88.416,"mean_anomaly_deg":271.7,"bstar":0.00055278,"rev_number":5280,"period_min":93.847939673184,"perigee_km":461.76939571391,"apogee_km":463.65473371614,"semimajor_km":6840.849064715,"source":"CELESTRAK","updated_at":"2026-09-21T09:00:35.796640Z"}}